(276743) = 2004 EZ99

Discovered at Kitt Peak on 2004-03-15 by Spacewatch.

Orbit

Orbit type: Main Belt

Note: WebGL enabled browser required.

epoch2024-03-31.0
epoch JD2460400.5
perihelion date2022-03-02.35347
perihelion JD2459640.85347
argument of perihelion (°)314.84030
ascending node (°)346.58099
inclination (°)6.41183
eccentricity0.1332478
perihelion distance (AU)1.9505304
Tisserand w.r.t. Jupiter3.6
ΔV w.r.t. Earth (km/sec)8.8
semimajor axis (AU)2.2503900
mean anomaly (°)221.78324
mean daily motion (°/day)0.29195580
aphelion distance (AU)2.550
period (years)3.38
P-vector [x]0.52235607
P-vector [y]-0.74748350
P-vector [z]-0.41038098
Q-vector [x]0.85233355
Q-vector [y]0.44304869
Q-vector [z]0.27791254
absolute magnitude17.64
phase slope0.15
uncertainty0
referenceMPEC 2024-E144
observations used222
oppositions11
arc length (days)7300
first opposition used2004
last opposition used2024
residual rms (arc-secs)0.75
perturbers coarse indicatorM-v
perturbers precise indicator003Ek
first observation date used2004-03-15.0
last observation date used2024-03-10.0
computer nameMPCLINUX
JD of orbit computation2456731.501875
perihelion JD uncertainty (days)1.3292E-04
argument of perihelion uncertainty (°)5.3295E-05
ascending node uncertainty (°)4.1068E-05
inclination uncertainty (°)6.6067E-06
eccentricity uncertainty 4.0408E-08
perihelion distance uncertainty (AU)8.8418E-08
Minimum Orbit Intersection Distances (in AU)
for orbit epoch: 2460400.5, reference: E2024-EE4
Mercury1.50413
Venus1.22313
Earth0.94141
Mars0.54577
Jupiter2.66162
Saturn6.5423
Uranus15.9564
Neptune27.5056

Observations

225 total observations over interval: 2004 03 15.21185 – 2024 03 10.339633
These data are available for download (format description).

Date (UT) J2000 RA J2000 Dec Magn Location Ref
2004 03 15.21185 11 33 07.07 +01 25 14.3 20.8 V 691 – Steward Observatory, Kitt Peak-Spacewatch MPS 110326
2004 03 15.23872 11 33 05.27 +01 25 20.2 20.9 V 691 – Steward Observatory, Kitt Peak-Spacewatch MPS 110326
2004 03 15.26588 11 33 03.44 +01 25 26.6 20.8 V 691 – Steward Observatory, Kitt Peak-Spacewatch MPS 110326
2004 03 23.20584 11 24 34.25 +01 55 37.3 21.5 V 691 – Steward Observatory, Kitt Peak-Spacewatch MPS 110326
2004 03 23.23924 11 24 32.07 +01 55 44.7 21.0 V 691 – Steward Observatory, Kitt Peak-Spacewatch MPS 110326
2004 03 23.26986 11 24 30.11 +01 55 51.5 20.8 V 691 – Steward Observatory, Kitt Peak-Spacewatch MPS 110326
2005 09 14.43373 00 16 02.68 +04 32 00.2 19.9 V 691 – Steward Observatory, Kitt Peak-Spacewatch MPS 165085
2005 09 14.45125 00 16 01.58 +04 31 58.4 20.0 V 691 – Steward Observatory, Kitt Peak-Spacewatch MPS 165085
2005 09 14.46869 00 16 00.46 +04 31 56.6 19.9 V 691 – Steward Observatory, Kitt Peak-Spacewatch MPS 165085
2005 09 22.36343 00 07 40.24 +04 16 01.8 19.3 R 644 – Palomar Mountain/NEAT MPS 165085
2005 09 22.38541 00 07 38.78 +04 15 59.1 19.6 R 644 – Palomar Mountain/NEAT MPS 165085
2005 09 22.40716 00 07 37.30 +04 15 55.9 19.3 R 644 – Palomar Mountain/NEAT MPS 165085
2005 09 23.26647 00 06 42.01 +04 13 52.8 20.2 V 703 – Catalina Sky Survey MPS 165085
2005 09 23.27506 00 06 41.54 +04 13 51.7 19.8 V 703 – Catalina Sky Survey MPS 165085
2005 09 23.28363 00 06 41.04 +04 13 51.1 19.9 V 703 – Catalina Sky Survey MPS 165085
2005 09 23.29220 00 06 40.42 +04 13 47.7 19.4 V 703 – Catalina Sky Survey MPS 165085
2005 10 07.24365 23 52 26.25 +03 37 28.8 20.4 V 703 – Catalina Sky Survey MPS 165085
2005 10 07.25123 23 52 25.75 +03 37 27.8 19.9 V 703 – Catalina Sky Survey MPS 165085
2005 10 07.25880 23 52 25.32 +03 37 29.8 20.7 V 703 – Catalina Sky Survey MPS 165085
2005 10 07.26637 23 52 24.85 +03 37 25.4 20.4 V 703 – Catalina Sky Survey MPS 165085
2007 01 27.30669 09 07 07.63 +23 02 34.3 21.0 V 691 – Steward Observatory, Kitt Peak-Spacewatch MPS 198112
2007 01 27.32456 09 07 06.34 +23 02 38.2 21.6 V 691 – Steward Observatory, Kitt Peak-Spacewatch MPS 198112
2007 01 27.34244 09 07 05.10 +23 02 41.2 20.9 V 691 – Steward Observatory, Kitt Peak-Spacewatch MPS 198112
2007 01 31.12053 09 02 40.254 +23 13 59.5   084 – Pulkovo MPS 252433
2011 04 13.31175 13 34 12.82 -17 41 31.9 20.2 V G96 – Mt. Lemmon Survey MPS 378599
2011 04 13.31958 13 34 12.32 -17 41 31.1 19.9 V G96 – Mt. Lemmon Survey MPS 378599
2011 04 13.32743 13 34 11.74 -17 41 29.7 20.1 V G96 – Mt. Lemmon Survey MPS 378599
2011 04 13.33528 13 34 11.20 -17 41 28.6 20.5 V G96 – Mt. Lemmon Survey MPS 378599
2011 04 28.34221 13 17 49.348 -16 51 12.87 20.6 w F51 – Pan-STARRS 1, Haleakala MPS 380019
2011 04 28.35631 13 17 48.435 -16 51 09.42 20.6 w F51 – Pan-STARRS 1, Haleakala MPS 380019
2011 04 28.37054 13 17 47.520 -16 51 06.16 20.5 w F51 – Pan-STARRS 1, Haleakala MPS 380019
2011 04 28.38466 13 17 46.608 -16 51 02.83 20.5 w F51 – Pan-STARRS 1, Haleakala MPS 380019
2011 05 09.23035 13 07 50.37 -16 07 25.3 19.7 V G96 – Mt. Lemmon Survey MPS 382127
2011 05 09.23837 13 07 50.12 -16 07 23.9 19.6 V G96 – Mt. Lemmon Survey MPS 382127
2011 05 09.24652 13 07 49.65 -16 07 21.7 20.3 V G96 – Mt. Lemmon Survey MPS 382127
2011 05 09.25453 13 07 49.26 -16 07 19.4 21.0 V G96 – Mt. Lemmon Survey MPS 382127
2012 10 06.34022 03 00 32.20 +25 15 43.0   691 – Steward Observatory, Kitt Peak-Spacewatch MPS 434882
2012 10 06.35790 03 00 31.43 +25 15 44.5   691 – Steward Observatory, Kitt Peak-Spacewatch MPS 434882
2012 10 06.37557 03 00 30.68 +25 15 46.8   691 – Steward Observatory, Kitt Peak-Spacewatch MPS 434882
2012 10 10.41670 02 57 26.16 +25 21 38.8 21.2 V 691 – Steward Observatory, Kitt Peak-Spacewatch MPS 437704
2012 10 10.43441 02 57 25.24 +25 21 40.0 21.0 V 691 – Steward Observatory, Kitt Peak-Spacewatch MPS 437704
2012 10 10.45211 02 57 24.32 +25 21 41.0 20.9 V 691 – Steward Observatory, Kitt Peak-Spacewatch MPS 437704
2012 10 14.30142 02 54 01.00 +25 24 15.3 20.5 V 691 – Steward Observatory, Kitt Peak-Spacewatch MPS 437704
2012 10 14.31913 02 53 59.95 +25 24 15.7 20.5 V 691 – Steward Observatory, Kitt Peak-Spacewatch MPS 437704
2012 10 14.33684 02 53 58.91 +25 24 15.9 20.6 V 691 – Steward Observatory, Kitt Peak-Spacewatch MPS 437704
2012 10 22.31837 02 45 45.91 +25 19 50.7 20.7 V 691 – Steward Observatory, Kitt Peak-Spacewatch MPS 439340
2012 10 22.33628 02 45 44.65 +25 19 49.2 20.3 V 691 – Steward Observatory, Kitt Peak-Spacewatch MPS 439340
2012 10 22.35412 02 45 43.43 +25 19 47.7 20.4 V 691 – Steward Observatory, Kitt Peak-Spacewatch MPS 439340
2012 10 24.531396 02 43 16.568 +25 16 19.15 20.0 i F51 – Pan-STARRS 1, Haleakala MPS 439340
2012 10 24.545120 02 43 15.611 +25 16 17.59 20.3 i F51 – Pan-STARRS 1, Haleakala MPS 439340
2012 11 04.345791 02 30 37.142 +24 45 53.88 20.1 i F51 – Pan-STARRS 1, Haleakala MPS 441453
2012 11 04.357890 02 30 36.253 +24 45 51.55 20.0 i F51 – Pan-STARRS 1, Haleakala MPS 441453
2014 01 28.48190 11 07 09.18 +08 31 33.7 20.5 V G96 – Mt. Lemmon Survey MPS 500051
2014 01 28.48695 11 07 08.97 +08 31 34.2 21.4 V G96 – Mt. Lemmon Survey MPS 500051
2014 01 28.49199 11 07 08.81 +08 31 34.9 20.6 V G96 – Mt. Lemmon Survey MPS 500051
2014 01 28.49704 11 07 08.60 +08 31 35.7 21.0 V G96 – Mt. Lemmon Survey MPS 500051
2014 02 10.39866 10 57 44.246 +09 05 09.04 20.7 i F51 – Pan-STARRS 1, Haleakala MPS 501537
2014 02 10.41052 10 57 43.600 +09 05 11.46 20.5 i F51 – Pan-STARRS 1, Haleakala MPS 501537
2014 02 10.42238 10 57 42.931 +09 05 13.93 20.6 i F51 – Pan-STARRS 1, Haleakala MPS 501537
2014 02 10.43428 10 57 42.300 +09 05 16.08 21.0 i F51 – Pan-STARRS 1, Haleakala MPS 501537
2014 02 26.35119 10 41 32.183 +10 03 11.90 20.3 w F51 – Pan-STARRS 1, Haleakala MPS 503763
2014 02 26.37503 10 41 30.567 +10 03 17.34 20.4 w F51 – Pan-STARRS 1, Haleakala MPS 503763
2014 02 26.38695 10 41 29.753 +10 03 20.10 20.5 w F51 – Pan-STARRS 1, Haleakala MPS 503763
2015 07 23.56783 23 01 57.549 -11 27 36.84 20.1 w F52 – Pan-STARRS 2, Haleakala MPS 617380
2015 07 23.58059 23 01 57.350 -11 27 35.65 20.0 w F52 – Pan-STARRS 2, Haleakala MPS 617380
2015 07 23.59337 23 01 57.160 -11 27 34.79 20.2 w F52 – Pan-STARRS 2, Haleakala MPS 617380
2015 07 23.60623 23 01 56.955 -11 27 33.54 20.2 w F52 – Pan-STARRS 2, Haleakala MPS 617380
2015 07 24.52692 23 01 45.112 -11 26 21.53 20.2 w F51 – Pan-STARRS 1, Haleakala MPS 618333
2015 07 24.53942 23 01 44.893 -11 26 20.62 20.1 w F51 – Pan-STARRS 1, Haleakala MPS 618333
2015 07 24.55190 23 01 44.677 -11 26 19.66 20.2 w F51 – Pan-STARRS 1, Haleakala MPS 618333
2015 07 24.56432 23 01 44.459 -11 26 18.73 20.1 w F51 – Pan-STARRS 1, Haleakala MPS 618333
2015 08 05.33967 22 56 31.15 -11 20 34.7 20.1 r G45 – Space Surveillance Telescope, Atom Site MPS 619571
2015 08 05.34519 22 56 30.92 -11 20 35.5 20.3 r G45 – Space Surveillance Telescope, Atom Site MPS 619571
2015 08 05.35052 22 56 30.74 -11 20 35.1 20.0 r G45 – Space Surveillance Telescope, Atom Site MPS 619571
2015 08 05.35594 22 56 30.50 -11 20 34.9 19.8 r G45 – Space Surveillance Telescope, Atom Site MPS 619571
2015 08 05.36150 22 56 30.27 -11 20 35.4 20.4 r G45 – Space Surveillance Telescope, Atom Site MPS 619571
2015 08 06.34038 22 55 51.60 -11 20 50.0 20.3 r G45 – Space Surveillance Telescope, Atom Site MPS 619571
2015 08 06.34567 22 55 51.37 -11 20 49.6 19.8 r G45 – Space Surveillance Telescope, Atom Site MPS 619571
2015 08 06.35092 22 55 51.13 -11 20 49.8 19.8 r G45 – Space Surveillance Telescope, Atom Site MPS 619571
2015 08 06.35641 22 55 50.88 -11 20 49.9 19.7 r G45 – Space Surveillance Telescope, Atom Site MPS 619571
2015 08 06.36194 22 55 50.69 -11 20 50.0 20.5 r G45 – Space Surveillance Telescope, Atom Site MPS 619571
2015 08 08.66450 22 54 12.34 -11 21 37.4 19.6 R Q60 – ISON-SSO Observatory, Siding Spring MPS 620871
2015 08 08.67396 22 54 11.96 -11 21 36.4 19.6 R Q60 – ISON-SSO Observatory, Siding Spring MPS 620871
2015 08 08.68342 22 54 11.48 -11 21 37.9 19.6 R Q60 – ISON-SSO Observatory, Siding Spring MPS 620871
2015 08 21.42381 22 42 41.205 -11 32 53.22 19.4 w F51 – Pan-STARRS 1, Haleakala MPS 623988
2015 08 21.43494 22 42 40.481 -11 32 54.00 19.4 w F51 – Pan-STARRS 1, Haleakala MPS 623988
